| time (UTC) | temp F | wind direction | speed MPH | gust MPH | rain 1hr in | rain 24hr in | rain mn in | humidity % | barometer mb |
| 20260504030027 | 58 | 183 | 0.0 | 3.0 | 0.00 | 0.03 | 0.03 | 62 | 1006.7 |
| 20260504024523 | 59 | 147 | 0.0 | 3.0 | 0.00 | 0.03 | 0.03 | 62 | 1006.7 |
| 20260504023027 | 59 | 139 | 0.0 | 7.0 | 0.00 | 0.03 | 0.03 | 61 | 1006.6 |
| 20260504021523 | 60 | 155 | 1.0 | 4.0 | 0.00 | 0.03 | 0.03 | 60 | 1006.6 |
| 20260504020025 | 60 | 145 | 0.0 | 3.0 | 0.00 | 0.03 | 0.03 | 59 | 1006.5 |
| 20260504014531 | 61 | 179 | 0.0 | 4.0 | 0.00 | 0.03 | 0.03 | 58 | 1006.3 |
| 20260504013022 | 61 | 146 | 1.0 | 5.0 | 0.00 | 0.03 | 0.03 | 57 | 1006.2 |
| 20260504011523 | 62 | 158 | 0.0 | 5.0 | 0.00 | 0.03 | 0.03 | 56 | 1006.1 |
| 20260504010019 | 63 | 142 | 1.0 | 5.0 | 0.00 | 0.03 | 0.03 | 55 | 1005.9 |
| 20260504004521 | 64 | 169 | 0.0 | 4.0 | 0.00 | 0.03 | 0.03 | 51 | 1006.0 |
| 20260504003019 | 65 | 156 | 2.0 | 6.0 | 0.00 | 0.03 | 0.03 | 49 | 1006.1 |
| 20260504001518 | 66 | 150 | 3.0 | 7.0 | 0.00 | 0.03 | 0.03 | 48 | 1006.1 |
| 20260504000016 | 67 | 184 | 3.0 | 9.0 | 0.00 | 0.03 | 0.03 | 46 | 1006.1 |
| 20260503234517 | 67 | 174 | 3.0 | 13.0 | 0.00 | 0.03 | 0.03 | 45 | 1006.0 |
| 20260503233016 | 68 | 258 | 3.0 | 14.0 | 0.00 | 0.03 | 0.03 | 43 | 1006.1 |
| 20260503231517 | 68 | 197 | 5.0 | 13.0 | 0.00 | 0.03 | 0.03 | 42 | 1006.2 |
| 20260503230017 | 68 | 219 | 3.0 | 15.0 | 0.00 | 0.03 | 0.03 | 42 | 1006.3 |
| 20260503224516 | 68 | 116 | 3.0 | 10.0 | 0.00 | 0.03 | 0.03 | 44 | 1006.4 |
| 20260503223014 | 68 | 123 | 2.0 | 14.0 | 0.00 | 0.03 | 0.03 | 44 | 1006.5 |
| 20260503221512 | 69 | 169 | 4.0 | 12.0 | 0.00 | 0.03 | 0.03 | 42 | 1006.5 |
| 20260503220007 | 68 | 169 | 3.0 | 13.0 | 0.00 | 0.03 | 0.03 | 43 | 1006.7 |
| 20260503214504 | 67 | 136 | 6.0 | 17.0 | 0.00 | 0.03 | 0.03 | 42 | 1006.9 |
| 20260503213001 | 66 | 130 | 9.0 | 19.0 | 0.00 | 0.03 | 0.03 | 42 | 1007.1 |
| 20260503211557 | 65 | 143 | 6.0 | 13.0 | 0.00 | 0.03 | 0.03 | 44 | 1007.4 |
| 20260503210057 | 65 | 144 | 5.0 | 20.0 | 0.00 | 0.03 | 0.03 | 43 | 1007.7 |
| 20260503204553 | 65 | 164 | 6.0 | 23.0 | 0.00 | 0.03 | 0.03 | 43 | 1008.0 |
| 20260503203055 | 65 | 160 | 5.0 | 17.0 | 0.00 | 0.03 | 0.03 | 42 | 1008.4 |
| 20260503201549 | 65 | 221 | 7.0 | 19.0 | 0.00 | 0.03 | 0.03 | 41 | 1008.7 |
| 20260503200047 | 64 | 174 | 6.0 | 19.0 | 0.00 | 0.03 | 0.03 | 42 | 1008.8 |
| 20260503194545 | 65 | 196 | 7.0 | 20.0 | 0.00 | 0.03 | 0.03 | 44 | 1009.1 |
| 20260503193045 | 63 | 143 | 8.0 | 18.0 | 0.00 | 0.03 | 0.03 | 49 | 1009.1 |
| 20260503191539 | 62 | 153 | 7.0 | 17.0 | 0.00 | 0.03 | 0.03 | 53 | 1009.3 |
| 20260503190037 | 60 | 127 | 4.0 | 13.0 | 0.00 | 0.03 | 0.03 | 59 | 1009.4 |
| 20260503184528 | 59 | 167 | 5.0 | 16.0 | 0.00 | 0.03 | 0.03 | 59 | 1009.8 |
| 20260503183024 | 58 | 115 | 6.0 | 16.0 | 0.00 | 0.03 | 0.03 | 63 | 1010.2 |
| 20260503181520 | 55 | 132 | 7.0 | 15.0 | 0.00 | 0.03 | 0.03 | 65 | 1010.5 |
| 20260503180016 | 55 | 124 | 4.0 | 17.0 | 0.01 | 0.03 | 0.03 | 69 | 1010.9 |
| 20260503174511 | 54 | 126 | 3.0 | 11.0 | 0.01 | 0.03 | 0.03 | 72 | 1011.1 |
| 20260503173009 | 51 | 141 | 4.0 | 12.0 | 0.01 | 0.03 | 0.03 | 79 | 1012.0 |
| 20260503171507 | 50 | 109 | 3.0 | 11.0 | 0.02 | 0.03 | 0.03 | 82 | 1012.3 |
| 20260503160116 | 48 | 151 | 2.0 | 6.0 | 0.01 | 0.01 | 0.01 | 85 | 1014.1 |
| 20260503081556 | 43 | 108 | 0.0 | 2.0 | 0.00 | 0.00 | 0.00 | 66 | 1015.7 |
| 20260503071553 | 42 | 134 | 0.0 | 1.0 | 0.00 | 0.00 | 0.00 | 67 | 1015.9 |
| 20260503060107 | 42 | 142 | 0.0 | 1.0 | 0.00 | 0.00 | 0.00 | 66 | 1016.6 |
| 20260503054541 | 42 | 126 | 0.0 | 1.0 | 0.00 | 0.00 | 0.00 | 66 | 1016.7 |
| 20260503053039 | 42 | 138 | 0.0 | 0.0 | 0.00 | 0.00 | 0.00 | 65 | 1016.8 |
| 20260503051536 | 42 | 136 | 0.0 | 0.0 | 0.00 | 0.00 | 0.00 | 65 | 1016.8 |
| 20260503050035 | 43 | 136 | 0.0 | 1.0 | 0.00 | 0.00 | 0.00 | 64 | 1017.0 |
| 20260503044534 | 43 | 154 | 0.0 | 1.0 | 0.00 | 0.00 | 0.00 | 65 | 1016.9 |
| 20260503043041 | 43 | 127 | 0.0 | 1.0 | 0.00 | 0.00 | 0.00 | 65 | 1017.0 |
| 20260503041531 | 44 | 127 | 0.0 | 1.0 | 0.00 | 0.00 | 0.00 | 62 | 1017.1 |
| 20260503040030 | 44 | 122 | 0.0 | 1.0 | 0.00 | 0.00 | 0.00 | 62 | 1017.2 |
| 20260503034529 | 43 | 133 | 0.0 | 1.0 | 0.00 | 0.00 | 0.00 | 66 | 1017.3 |
| 20260503033034 | 43 | 134 | 0.0 | 1.0 | 0.00 | 0.00 | 0.00 | 68 | 1017.3 |
| 20260503031528 | 43 | 135 | 0.0 | 0.0 | 0.00 | 0.00 | 0.00 | 67 | 1017.3 |